Meath Environmental Platform

Observations for Trim Market St

Time AQI Temp °C Hum % Pres Pa CO μg/m³ H₂S μg/m³ NO μg/m³ NO₂ μg/m³ O₃ μg/m³ SO₂ μg/m³ PM1 μg/m³ PM2.5 μg/m³ PM10 μg/m³
Monday 24 August 2026
23:24 3 16.2 68 56,262 0.3 0 1.36 25.26 51.47 0 4.28 5.58 8.17
23:23 3 16.2 68 56,275 0.3 0 1.25 18.6 58.13 0 3.56 6.56 10.08
23:20 3 16.2 68 56,320 0.3 0 1.3 16.37 61.76 0 4.99 7.05 10.08
23:19 3 16.2 68 56,328 0.39 0 1.36 19.06 64.92 0 2.85 6.08 9.44
23:18 3 16.2 68 56,346 0.72 0 1.39 24.61 61.48 0 4.28 7.54 10.72
23:17 3 16.2 68 56,375 0.29 0 1.36 19.29 69.03 0 4.99 9.5 14.56
23:16 3 16.2 68 56,394 0.3 0 1.31 19.02 76.96 0 3.56 6.58 9.45
23:14 3 16.2 68 56,420 0.32 0 1.28 21.99 69.07 0 2.14 6.58 10.09
23:10 3 16.2 68 56,499 0.29 0 1.51 20.76 68.22 0 4.99 7.57 12.01
23:09 3 16.2 68 56,514 0.28 0 1.45 18.48 66.93 0 3.56 6.59 10.74
23:06 3 16.2 67 56,576 0.33 0 1.28 30.69 49.67 0 4.99 7.58 10.74
22:43 3 16.3 66 56,983 0.25 0 1.23 20.4 63.56 0 4.28 7.66 10.78
22:42 3 16.3 66 56,999 0.24 0 1.23 19.75 67.31 0 4.28 6.19 8.83
22:41 3 16.3 66 57,014 0.26 0 1.36 19.75 66.34 0 3.56 9.64 14.04
22:40 3 16.3 66 57,036 0.26 0 1.39 18.61 66.86 0 4.28 6.2 9.48
22:39 3 16.3 66 57,055 0.26 0 1.39 22.99 65.83 0 3.56 7.18 10.79
22:38 3 16.4 66 57,070 0.27 0 1.19 20.63 64.72 0 2.14 6.2 10.79
22:37 3 16.3 66 57,084 0.25 0 1.23 18.28 67.7 0 4.28 7.19 11.44
22:36 3 16.4 66 57,098 0.25 0 1.16 22.25 62.3 0 4.28 7.69 13.4
22:35 3 16.4 66 57,117 0.23 0 1.12 20.29 62.9 0 4.28 6.71 9.49